Wind_Speed
12 11 11 11 11 10 9 10 11 11 11 9 8 8 8 10 11 12 14 15 16 17 18 20 21 22 25 26 26 26 26 25 24 25 25 24 23 24 23 22 21 18
10 9 8 9 10 10 10 10 11 11 11 10 9 8 10 11 11 12 14 15 17 18 18 19 19 21 24 26 26 26 25 24 23 25 25 23 23 24 22 22 21 19
9 7 7 8 9 10 10 10 11 11 12 11 9 9 10 11 12 12 14 16 18 19 19 19 19 21 24 26 27 27 25 23 22 24 25 25 26 25 22 22 22 21
9 7 7 8 9 10 10 11 11 12 12 11 9 9 9 11 12 13 14 16 17 19 20 21 21 23 25 26 27 28 27 24 22 24 26 27 27 25 23 22 21 20
10 9 8 8 9 11 11 11 11 11 12 12 11 10 10 11 12 13 15 16 17 18 20 21 22 24 25 26 26 27 27 26 25 25 27 27 27 25 24 23 22 21
9 9 10 10 11 11 11 12 13 13 12 12 12 12 12 12 13 14 14 16 17 18 21 22 22 24 26 26 26 26 26 27 27 27 26 26 26 26 24 22 24 24
10 9 10 11 12 12 11 12 13 13 14 14 13 13 13 13 14 15 15 16 17 18 21 22 22 24 26 27 26 26 27 27 28 28 27 26 26 26 25 25 25 24
11 11 11 11 11 12 12 13 12 13 15 15 14 13 14 14 15 15 16 16 17 19 20 21 22 24 25 26 26 26 28 28 28 29 28 27 25 25 25 25 24 23
12 11 11 11 11 11 11 13 14 14 14 15 16 15 15 15 15 14 16 17 17 19 21 22 23 24 25 25 24 25 26 27 27 28 28 27 25 25 24 22 21 23
14 12 11 11 12 12 11 12 13 14 15 15 17 18 17 17 16 15 16 17 17 19 22 23 24 25 26 25 24 24 25 26 27 27 29 28 27 26 25 23 23 25
16 15 12 11 11 12 12 12 13 14 16 16 18 19 18 17 17 17 17 17 18 20 22 23 25 26 26 26 24 24 25 26 26 28 30 29 27 26 25 22 23 25
17 17 16 14 12 12 12 12 13 14 16 17 18 18 16 16 17 18 18 18 19 20 22 23 24 25 26 27 26 25 26 26 26 27 29 27 25 25 23 21 22 23
17 18 19 18 15 14 13 13 13 14 15 17 18 18 17 16 17 18 19 20 20 20 21 21 22 25 26 27 27 26 25 25 27 27 27 26 26 25 23 22 22 21
16 17 18 19 17 15 14 14 14 14 15 15 16 17 17 17 18 18 20 22 21 21 21 21 21 23 26 27 28 26 24 25 27 27 26 26 25 23 21 21 20 20
17 17 17 19 19 16 14 14 14 14 15 14 14 15 16 16 17 17 19 21 21 20 22 23 22 21 25 29 28 26 25 26 27 27 27 25 24 23 23 22 22 23
17 18 17 18 20 19 17 14 14 14 14 13 13 14 15 16 17 18 18 19 21 21 22 24 24 23 25 28 29 27 26 26 28 29 28 25 23 23 24 24 23 24
18 19 19 18 19 21 20 17 15 15 14 13 12 13 15 16 18 19 19 19 20 20 21 23 24 25 26 26 27 27 27 28 31 30 27 24 22 23 23 23 23 23
19 19 19 19 19 21 22 21 19 17 15 13 12 13 14 16 17 18 19 20 20 20 20 22 23 25 27 26 26 27 28 30 31 29 27 25 23 23 22 22 23 22
20 20 20 20 21 22 23 25 24 21 18 15 13 12 13 15 16 16 17 18 19 19 19 20 21 24 27 27 27 27 29 32 31 27 25 26 25 23 21 20 20 20
20 21 20 21 24 23 24 27 29 27 24 20 17 14 13 13 15 15 15 15 16 17 17 17 21 25 28 29 29 29 30 33 31 25 23 25 25 23 22 20 20 20
20 20 20 22 25 26 27 30 32 31 29 27 24 21 17 15 14 14 14 14 16 18 19 19 21 24 27 30 31 31 31 32 29 26 25 26 25 23 22 21 22 23
21 20 20 22 25 27 28 31 33 33 33 31 30 27 24 21 17 14 13 14 15 18 20 21 21 22 25 30 31 31 31 31 29 28 28 26 25 24 22 22 23 23
22 21 21 22 24 25 26 30 32 33 33 32 30 28 26 24 21 18 15 13 14 16 18 21 21 21 22 27 30 30 32 33 32 30 29 27 25 24 23 23 23 22
20 20 20 21 21 21 23 26 29 31 31 31 29 26 24 21 19 18 17 15 14 14 15 18 21 21 20 24 28 30 33 35 33 32 31 28 25 24 23 23 23 23
18 18 19 19 19 19 19 21 23 26 28 29 28 27 24 19 16 15 15 14 13 13 13 15 19 20 20 23 27 31 35 36 34 33 31 27 25 25 25 24 25 26
19 18 18 18 18 18 17 18 19 22 24 25 26 27 26 23 20 17 15 13 11 11 11 11 14 17 19 21 25 30 33 32 31 31 28 25 25 26 25 25 26 27
Wind_Direction
293 298 306 307 300 295 292 284 271 262 257 250 252 260 260 263 263 256 248 241 236 235 233 233 235 231 223 220 224 226 230 234 231 228 227 222 221 224 224 222 217 208
307 306 306 301 296 296 290 278 270 264 259 251 250 255 255 258 262 260 258 250 239 233 233 231 231 229 221 220 225 227 232 233 227 228 230 226 225 224 223 223 219 209
321 307 301 295 289 283 275 270 268 263 258 252 250 254 257 259 261 259 257 254 245 235 230 228 227 225 221 222 226 230 234 233 228 231 232 229 229 226 222 226 223 213
318 305 301 299 290 283 275 270 269 268 266 261 252 250 258 262 261 258 253 250 247 237 229 226 225 224 224 225 229 233 237 237 236 236 233 231 231 226 222 225 225 220
315 305 298 294 291 290 285 278 275 275 273 270 263 255 258 263 261 259 255 250 246 237 229 226 225 225 226 226 230 233 236 238 237 236 234 234 233 228 223 222 221 222
315 304 294 289 288 291 292 290 286 283 277 273 271 266 263 263 258 255 254 253 249 240 232 228 225 225 224 224 226 230 234 237 236 234 235 235 232 228 225 223 223 224
323 313 303 293 287 286 285 286 286 287 283 277 272 269 267 263 257 254 252 252 251 245 236 230 226 223 221 221 223 227 230 234 234 233 233 233 233 229 223 223 226 226
336 324 314 304 296 289 281 275 275 277 279 279 275 270 267 264 261 258 256 252 248 244 236 230 227 222 220 220 222 225 229 231 234 234 232 233 234 231 225 222 223 223
355 338 321 310 302 296 286 277 271 268 268 273 274 272 268 264 259 256 257 255 249 243 235 229 226 221 220 221 222 226 230 232 235 234 230 229 228 227 225 220 218 220
7 356 338 319 307 302 295 283 273 265 261 262 266 270 270 266 257 251 251 252 249 243 235 229 226 223 222 224 225 228 231 234 237 234 229 228 225 224 225 221 218 219
10 5 353 335 317 309 303 294 283 271 263 261 261 263 266 266 260 253 248 247 245 242 236 230 227 225 224 225 225 228 231 234 235 231 230 231 228 227 227 221 218 217
12 10 6 353 335 322 313 304 296 284 272 266 261 259 261 261 259 255 251 248 245 242 238 232 227 225 224 225 226 227 230 232 231 228 229 229 225 225 225 218 215 218
11 14 13 5 350 336 327 316 305 295 282 271 265 262 260 257 256 254 251 250 247 243 240 234 228 225 224 225 226 226 228 230 228 225 224 224 221 221 224 221 218 223
4 8 10 6 360 347 333 323 315 305 294 281 270 266 264 261 259 258 255 254 252 247 241 235 230 227 226 225 225 224 226 227 225 220 217 219 218 215 220 222 218 222
2 4 3 4 6 360 342 328 321 314 304 292 277 270 268 264 261 261 260 257 254 250 245 237 232 230 229 227 225 223 223 225 222 218 216 216 214 214 221 224 221 222
2 3 1 2 8 8 357 340 328 321 314 302 286 273 269 267 265 263 262 259 254 252 249 241 235 234 232 230 227 224 224 225 223 220 218 215 213 217 225 228 227 226
3 3 2 1 4 8 6 356 342 330 323 312 295 280 270 267 266 264 263 263 259 254 249 241 237 237 237 233 229 227 228 228 226 221 217 214 214 220 226 229 228 227
5 4 5 3 2 6 8 6 358 345 333 320 306 293 280 269 263 260 257 257 257 255 249 241 236 237 239 235 229 228 231 231 227 220 214 213 217 222 225 228 230 228
7 7 8 7 7 7 8 10 9 1 351 340 326 312 296 280 268 260 254 252 253 254 251 243 236 234 235 233 227 226 232 233 226 217 213 215 219 223 221 221 224 222
10 11 9 9 11 10 9 12 13 11 7 0 350 337 318 298 282 268 259 256 255 254 253 248 241 236 233 230 226 225 229 230 223 213 214 217 218 219 219 217 217 218
12 12 10 11 13 13 12 14 14 14 13 10 5 358 347 331 310 285 270 265 262 259 257 255 252 243 234 228 226 225 227 227 222 213 211 213 212 213 217 219 221 224
15 14 13 14 14 14 15 15 14 14 13 12 9 5 1 353 340 318 293 280 276 268 260 258 257 249 235 226 223 224 223 221 221 218 212 208 210 212 215 219 221 222
17 17 17 16 15 16 16 16 16 16 14 12 8 4 2 359 352 342 327 308 295 283 270 262 258 252 241 228 221 221 220 216 217 220 214 209 211 212 214 218 218 215
16 16 16 16 16 16 16 17 18 19 18 17 13 7 3 359 355 348 339 329 317 300 284 271 261 255 247 234 223 217 216 215 216 219 213 207 209 210 209 214 215 209
14 15 15 16 15 14 14 15 17 19 20 20 21 18 13 8 6 360 347 339 331 316 299 281 268 259 251 242 230 218 213 214 216 216 212 205 206 208 205 209 214 210
18 16 15 16 15 14 13 13 14 17 17 18 22 25 24 21 23 25 18 5 349 330 312 293 277 264 253 247 236 220 212 213 214 214 209 203 204 207 204 207 214 209
Height
1524 1524 1523 1523 1522 1522 1521 1521 1520 1520 1520 1520 1519 1519 1518 1518 1518 1518 1517 1517 1517 1518 1519 1520 1521 1523 1525 1527 1527 1528 1529 1530 1531 1531 1532 1533 1533 1534 1534 1536 1537 1539
1523 1522 1522 1522 1522 1521 1520 1520 1519 1519 1518 1518 1518 1517 1517 1517 1517 1517 1516 1516 1515 1516 1516 1517 1519 1520 1522 1524 1524 1525 1527 1528 1529 1529 1529 1531 1531 1531 1532 1534 1535 1537
1522 1521 1521 1520 1520 1519 1519 1518 1517 1517 1517 1516 1516 1516 1515 1515 1515 1515 1515 1515 1514 1514 1514 1515 1516 1518 1519 1520 1521 1522 1523 1524 1526 1527 1527 1528 1528 1529 1531 1532 1533 1535
1521 1520 1519 1518 1518 1517 1517 1516 1516 1516 1515 1514 1514 1514 1513 1513 1513 1513 1513 1513 1513 1512 1513 1513 1514 1515 1517 1518 1518 1519 1520 1522 1523 1524 1525 1526 1526 1527 1529 1530 1531 1533
1519 1519 1518 1517 1516 1515 1515 1514 1514 1514 1513 1513 1512 1512 1512 1511 1511 1512 1512 1512 1511 1511 1511 1511 1512 1513 1514 1515 1516 1517 1518 1519 1521 1522 1523 1524 1525 1525 1527 1528 1529 1531
1518 1517 1516 1515 1514 1514 1514 1513 1512 1512 1511 1511 1511 1510 1510 1510 1510 1510 1510 1510 1510 1510 1509 1509 1510 1511 1511 1512 1513 1515 1516 1517 1518 1519 1520 1521 1523 1524 1525 1527 1528 1529
1517 1516 1515 1514 1513 1512 1512 1512 1511 1510 1509 1509 1509 1509 1509 1509 1509 1508 1508 1509 1508 1508 1508 1508 1508 1509 1509 1510 1511 1512 1513 1514 1516 1517 1518 1519 1521 1522 1524 1525 1526 1527
1516 1515 1513 1512 1511 1511 1510 1510 1509 1508 1508 1507 1507 1507 1507 1507 1507 1506 1506 1506 1506 1506 1506 1506 1506 1506 1508 1509 1509 1510 1511 1512 1514 1515 1516 1518 1520 1521 1521 1522 1523 1525
1515 1513 1512 1511 1509 1509 1508 1507 1507 1506 1506 1506 1505 1505 1505 1505 1505 1505 1504 1504 1504 1504 1504 1504 1504 1504 1505 1506 1507 1508 1509 1510 1511 1513 1514 1516 1517 1519 1519 1520 1521 1523
1514 1512 1511 1509 1508 1507 1506 1505 1505 1504 1504 1504 1503 1503 1503 1503 1503 1503 1503 1502 1502 1501 1501 1501 1501 1502 1503 1504 1505 1506 1507 1508 1509 1510 1512 1512 1514 1516 1517 1518 1519 1520
1514 1512 1510 1508 1507 1505 1504 1504 1503 1502 1502 1501 1501 1500 1501 1501 1501 1500 1500 1500 1499 1499 1499 1499 1499 1500 1501 1501 1503 1504 1505 1506 1507 1507 1508 1509 1510 1513 1514 1516 1517 1518
1514 1512 1510 1508 1506 1504 1503 1502 1501 1500 1500 1499 1499 1498 1498 1499 1498 1498 1497 1497 1496 1496 1496 1496 1496 1497 1498 1499 1500 1501 1502 1503 1505 1505 1506 1507 1508 1510 1513 1514 1514 1515
1515 1512 1510 1508 1506 1504 1502 1501 1499 1498 1497 1497 1496 1496 1496 1495 1495 1495 1495 1494 1494 1494 1493 1494 1494 1495 1496 1496 1497 1499 1500 1501 1502 1503 1504 1505 1506 1508 1510 1511 1511 1513
1515 1513 1510 1508 1506 1504 1502 1500 1498 1496 1495 1494 1494 1493 1493 1492 1492 1492 1491 1491 1491 1491 1491 1493 1494 1494 1494 1494 1495 1496 1498 1498 1499 1500 1502 1503 1505 1507 1508 1509 1510 1512
1515 1512 1511 1509 1506 1503 1501 1499 1497 1495 1493 1492 1491 1490 1490 1490 1489 1489 1488 1488 1488 1488 1489 1490 1492 1493 1492 1492 1493 1494 1495 1496 1496 1498 1499 1500 1503 1505 1506 1507 1508 1509
1515 1513 1510 1508 1505 1503 1500 1497 1495 1493 1491 1490 1488 1488 1487 1487 1487 1486 1486 1486 1485 1486 1486 1487 1488 1489 1489 1490 1491 1492 1493 1493 1494 1495 1497 1498 1499 1502 1503 1504 1505 1507
1515 1513 1510 1507 1504 1502 1499 1496 1494 1492 1490 1488 1486 1485 1485 1484 1484 1484 1483 1483 1483 1483 1483 1484 1485 1486 1487 1488 1490 1491 1491 1491 1491 1492 1493 1494 1496 1498 1500 1502 1503 1505
1516 1513 1510 1507 1504 1501 1498 1495 1493 1490 1488 1486 1485 1483 1482 1481 1481 1480 1480 1480 1480 1480 1480 1481 1482 1483 1485 1486 1488 1489 1489 1488 1488 1489 1489 1491 1493 1496 1498 1500 1501 1502
1516 1513 1510 1507 1504 1501 1498 1496 1492 1489 1487 1485 1483 1482 1480 1479 1478 1477 1477 1476 1476 1477 1477 1478 1479 1480 1481 1483 1484 1486 1486 1485 1486 1486 1486 1488 1491 1493 1496 1498 1499 1501
1517 1514 1511 1508 1505 1502 1499 1496 1493 1489 1487 1484 1482 1480 1478 1476 1475 1474 1473 1473 1473 1473 1474 1475 1475 1476 1477 1480 1481 1482 1482 1482 1483 1484 1484 1486 1489 1491 1494 1496 1497 1499
1518 1515 1512 1509 1506 1503 1499 1496 1493 1490 1487 1484 1481 1479 1477 1475 1473 1472 1471 1470 1470 1470 1471 1471 1472 1472 1474 1476 1477 1479 1480 1481 1482 1482 1482 1484 1487 1490 1492 1494 1495 1496
1519 1516 1513 1510 1507 1503 1500 1497 1494 1491 1487 1484 1482 1479 1476 1474 1472 1470 1469 1468 1468 1468 1468 1468 1468 1469 1470 1472 1474 1476 1478 1480 1481 1481 1481 1482 1485 1488 1490 1492 1493 1494
1520 1517 1515 1512 1508 1505 1502 1498 1495 1492 1489 1486 1483 1480 1477 1475 1473 1470 1469 1467 1466 1466 1465 1465 1465 1466 1467 1469 1471 1473 1475 1477 1479 1480 1480 1481 1484 1486 1488 1489 1491 1493
1521 1519 1516 1513 1510 1507 1504 1501 1498 1495 1492 1488 1486 1483 1480 1477 1474 1472 1470 1467 1466 1464 1464 1463 1463 1463 1464 1466 1468 1470 1471 1473 1476 1478 1479 1480 1482 1484 1485 1487 1490 1492
1523 1520 1518 1515 1512 1510 1507 1504 1501 1498 1495 1492 1489 1486 1483 1480 1477 1474 1471 1469 1467 1465 1463 1462 1462 1462 1462 1463 1465 1466 1468 1470 1473 1476 1476 1477 1480 1482 1483 1485 1487 1489
1524 1522 1519 1517 1514 1512 1509 1506 1503 1500 1498 1495 1492 1489 1486 1483 1480 1477 1474 1471 1468 1466 1464 1462 1461 1460 1461 1462 1462 1464 1465 1467 1470 1473 1474 1474 1477 1479 1480 1482 1485 1487